Location: Harbor Island
(32.3990°N, 80.4435°W)
Time: 18:29:04
(UTC-04:00)

Daily predictions for brighter satellites

Satellite Brightness Start Highest point End
(mag) Time Altitude Azimuth Time Altitude Azimuth Time Altitude Azimuth
Cosmos 1125 Rocket 4.0 20:39:55 10° NNW 20:45:09 66° WSW 20:50:20 10° S
Cosmos 1812 2.7 20:41:47 10° S 20:45:38 82° E 20:49:31 10° N
Abrixas 2.3 20:46:55 10° NW 20:49:39 75° SW 20:52:22 10° SE
Cosmos 2263 4.4 20:45:45 10° NNW 20:51:27 59° ENE 20:57:04 10° SSE
CZ-2D R/B 3.2 20:49:28 10° SSE 20:53:16 70° ENE 20:57:04 10° N
Envisat 3.8 20:49:54 10° SE 20:54:26 34° ENE 20:58:58 10° N
Cosmos 1709 Rocket 4.2 20:48:45 10° N 20:54:52 54° E 21:00:52 10° SSE
Cosmos 44 4.1 20:52:34 10° NW 20:56:40 43° WSW 21:00:51 10° S
Iridium 4 Rocket 3.7 20:52:33 10° N 20:57:35 59° E 21:03:02 10° SSE
ASTRO E2 2.6 20:55:01 10° W 20:58:59 76° S 21:02:58 10° E
H-2A R/B 4.0 21:03:36 10° S 21:07:06 39° W 21:10:36 10° NNW
Tiangong 2 1.0 21:05:09 10° SW 21:08:17 67° SSE 21:11:27 10° ENE
Cosmos 1975 Rocket 4.4 21:04:21 10° SSW 21:08:37 44° W 21:12:55 10° N
Aureole 1 Rocket 4.0 21:07:50 13° SE 21:09:39 18° ESE 21:11:55 10° ENE
NOSS 2-2 (E) 3.3 21:06:41 10° SSW 21:10:37 87° ESE 21:14:57 10° NNE
ISS -3.4 21:17:16 10° SSW 21:20:20 38° SE 21:23:25 10° ENE
USA 186 2.2 21:17:29 10° S 21:20:41 60° W 21:23:51 10° NNW
CZ-4B DEB 4.4 21:21:00 14° SSE 21:23:55 71° ENE 21:27:26 10° N
Cosmos 2315 Rocket 4.4 21:18:05 10° SSW 21:24:18 69° W 21:30:35 10° N
Cosmos 923 Rocket 4.0 21:19:31 10° S 21:24:47 65° ESE 21:30:02 10° NNE
OAO 2 Rocket 3.3 21:20:37 10° W 21:25:33 80° NNW 21:30:35 10° ENE
Cosmos 1666 4.2 21:23:23 10° NNE 21:26:09 19° ENE 21:26:56 18° E
Cosmos 1536 Rocket 3.5 21:25:55 10° S 21:30:14 88° ESE 21:34:35 10° N
CZ-3A R/B 2.0 21:23:38 10° SSW 21:31:02 39° SE 21:33:08 16° ENE
Cosmos 1437 2.8 21:29:17 10° S 21:32:29 80° W 21:35:43 10° N
CZ-4B DEB 2.6 21:31:49 29° SE 21:33:06 59° ENE 21:36:03 10° N
Helios 1A 2.9 21:29:33 14° SSE 21:33:08 87° ENE 21:37:22 10° NNW
Cosmos 2184 Rocket 4.4 21:28:55 10° N 21:34:58 45° E 21:38:55 21° SE
Cosmos 2074 Rocket 4.3 21:29:10 10° N 21:35:11 47° E 21:39:14 20° SE
Meteor 1-19 Rocket 4.2 21:32:49 10° S 21:38:37 71° E 21:44:22 10° NNE
Aurora 2 Rocket 4.5 21:32:08 10° WSW 21:39:50 54° S 21:47:18 19° ESE
SJ-11-01 4.2 21:36:38 17° SSE 21:40:14 84° ENE 21:44:57 10° N
Meteor 1-29 3.4 21:39:04 10° N 21:42:24 59° WNW 21:45:42 10° SSW
YAOGAN 6 2.8 21:42:06 34° SE 21:43:12 49° ENE 21:46:36 10° N
SAR-Lupe-4 3.5 21:41:16 23° S 21:43:23 82° WSW 21:46:59 10° NNW
ERS-1 Rocket 3.5 21:41:29 25° SE 21:43:52 42° ENE 21:48:36 10° N
Cosmos 1656 Rocket 3.8 21:41:49 10° N 21:47:09 54° ENE 21:49:49 28° SE
Cosmos 2369 Rocket 3.9 21:43:15 10° NW 21:48:01 28° WSW 21:52:47 10° SSW
Cosmos 405 Rocket 2.7 21:46:07 12° SSW 21:49:27 77° W 21:53:14 10° N
Resurs 01 Rocket 4.0 21:48:57 10° SW 21:52:10 20° W 21:55:25 10° NW
Cosmos 546 4.5 21:49:25 10° NW 21:53:16 84° NE 21:54:19 46° SE
H-2A R/B 3.7 21:52:51 16° ENE 21:53:39 17° ENE 21:56:43 10° NNE
Cosmos 2112 Rocket 3.9 21:52:22 10° SSW 21:57:36 85° ESE 22:02:49 10° NNE
Cosmos 192 4.2 21:54:12 14° S 21:58:18 69° ESE 22:03:11 10° NNE
Cosmos 1025 Rocket 3.3 21:58:34 41° ESE 21:59:15 45° E 22:03:19 10° NNE
Cosmos 1975 4.3 21:56:24 10° NNW 22:00:07 35° W 22:03:36 11° SSW
Cosmos 1441 Rocket 3.0 22:01:18 48° SSE 22:02:12 74° E 22:05:56 10° NNE
Cosmos 1943 Rocket 3.2 21:57:57 10° NW 22:03:10 41° WSW 22:07:20 15° S
CENTAUR R/B 3.2 21:56:37 10° NNW 22:04:43 73° ENE 22:09:18 31° SE
Nadezhda 1 Rocket 3.9 21:59:51 16° S 22:05:06 80° E 22:11:30 10° N
NOAA 11 4.2 22:07:48 38° SE 22:09:46 62° ENE 22:15:08 10° N
Cosmos 1939 Rocket 4.1 22:08:04 19° SSW 22:10:18 35° W 22:13:53 10° NNW
COSMOS 2406 4.1 22:08:36 10° SW 22:14:08 49° WNW 22:19:41 10° N
SL-08 RB Rocket 4.5 22:14:43 34° ENE 22:14:48 34° ENE 22:18:50 10° N
ARGOS 3.5 22:13:33 40° ESE 22:14:51 48° ENE 22:20:02 10° N
SL-27 R/B 3.0 22:14:28 31° SW 22:15:59 60° WNW 22:19:37 10° N
Cosmos 2154 Rocket 4.2 22:12:25 10° N 22:18:38 54° E 22:20:26 41° SE
COSMOS 2455 3.7 22:13:31 10° NW 22:19:09 44° WSW 22:22:27 23° SSW
Cosmos 374 Rocket 4.2 22:16:32 10° NNW 22:20:17 73° ENE 22:20:28 71° E
Nimbus 7 Rocket 4.5 22:14:38 10° NNE 22:20:36 57° ESE 22:22:26 41° SSE
Cosmos 1680 Rocket 4.5 22:16:15 10° SW 22:21:14 46° WNW 22:26:16 10° N
SPOT 5 2.8 22:23:04 51° ENE 22:23:06 51° ENE 22:27:17 10° N
H-2A R/B 4.2 22:24:49 15° ENE 22:24:49 15° ENE 22:26:49 10° NNE
Cosmos 2082 Rocket 3.7 22:28:02 22° ENE 22:28:02 22° ENE 22:30:42 10° NE
Cosmos 2056 Rocket 4.4 22:24:29 10° N 22:29:04 31° ENE 22:29:09 31° ENE
Cosmos 1743 4.4 22:27:53 10° NNW 22:31:17 29° W 22:32:38 23° SW
Cosmos 405 3.7 22:32:11 10° N 22:34:56 51° NNW 22:34:56 51° NNW
Terra 3.4 22:37:12 22° ENE 22:37:12 22° ENE 22:40:12 10° NNE
ASTEX 1 4.3 22:36:31 29° SW 22:38:33 44° W 22:43:14 10° NNW
ASTRO E2 3.7 22:35:33 10° W 22:38:11 38° WSW 22:38:11 38° WSW
MetOp-B 4.2 22:40:01 52° SSW 22:41:15 71° WSW 22:46:37 10° NNW
Cosmos 967 Rocket 4.3 22:38:24 28° SSW 22:41:54 84° ESE 22:48:12 10° NNE
Meteor 2-19 Rocket 4.4 22:37:30 10° N 22:43:35 65° E 22:44:22 59° ESE
SPOT 1/Viking Rocket 3.5 22:44:17 65° E 22:44:25 65° ENE 22:49:32 10° N
Tiangong 2 3.6 22:42:43 10° WNW 22:45:14 21° NNW 22:45:36 21° N
Cosmos 2341 Rocket 4.0 22:40:25 10° N 22:46:45 67° E 22:47:39 60° SE
Okean 2 4.1 22:50:04 50° W 22:50:04 50° W 22:54:00 10° N
Cosmos 1437 Rocket 3.8 22:46:50 10° N 22:49:25 41° N 22:49:25 41° N
ISS -0.8 22:54:40 10° WNW 22:56:56 17° NW 22:59:12 10° N
Cosmos 1892 Rocket 4.1 23:01:37 57° NNW 23:01:37 57° NNW 23:05:21 10° N
DNEPR-1 R/B 4.4 23:01:07 10° NW 23:04:38 47° W 23:04:38 47° W
Cosmos 1371 Rocket 4.1 23:03:06 10° NNW 23:08:06 73° WNW 23:08:06 73° WNW
Cosmos 2228 4.4 23:04:22 10° N 23:06:54 33° NNE 23:06:54 33° NNE
Cosmos 1833 Rocket 3.3 23:11:23 44° NE 23:11:23 44° NE 23:15:20 10° NNE
OAO 2 Rocket 3.7 23:05:36 10° WNW 23:10:01 60° NNW 23:10:01 60° NNW
Cosmos 1066 Rocket 4.4 23:15:05 63° NNE 23:15:05 63° NNE 23:19:46 10° N
Cosmos 921 Rocket 4.3 23:10:01 10° N 23:12:53 37° N 23:12:53 37° N
Cosmos 2181 Rocket 4.2 23:13:07 52° SW 23:14:30 66° W 23:20:49 10° N
SL-19 R/B 4.5 23:18:32 10° NNE 23:22:49 59° NNE 23:22:49 59° NNE
H-2A R/B 3.0 23:33:29 40° WNW 23:33:29 40° WNW 23:37:23 10° NNW
USA 267 3.1 23:27:25 10° NE 23:33:59 90° SE 23:34:02 89° SSW
Cosmos 1980 Rocket 3.8 23:38:45 10° N 23:42:26 24° NE 23:42:26 24° NE
